Showing default

JACKAL-01, 59127

Orbit data source: Space-Track

JACKAL-01, 59127 is a payload satellite owned by True Anomaly (US) in SSO that was launched on Mon, 04 Mar 2024 UTC via an FALCON 9 launch vehicle from the Air Force Western Test Range (AFWTR). Payloads include a variety of satellites, spacecraft, and rockets equipped with specific instruments for various scientific and technological missions. These include communications satellites like Starlink; space stations such as the ISS; scientific satellites like the Hubble; Earth observation satellites from companies like Planet Labs, Umbra, and HawkEye 360; GPS; miniature CubeSats for education and research; and military/defense satellites.

Loading next visibility...
JACKAL-01 details
Identifier
59127, 2024-043AF
Orbit
SSO
Last TLE update13 hours ago
Origin
Flag of USTrue Anomaly (US)
ManufacturerTrue Anomaly
MissionOperational Defense Technology
Bus & MotorJACKAL, Unknown motor
Mass275 kg wet, 275 kg dry
Launch date (UTC)
2024-03-04 (9 months ago)
Launch vehicle
FALCON 9
Launch site
Air Force Western Test Range (AFWTR)
Object type
Payload
Rocket body
Debris
Shape & HBRBox + 4 Pan, 0.3 m
Radar Cross Section0.080 m², Medium (>0.1 m² and < 1m²)

Expand to show TLE details & history

TLE from 13 hours ago
0 JACKAL-01
1 59127U 24043AF  24325.80913655  .00016212  00000-0  65921-3 0  9998
2 59127  97.4924  88.7093 0011305  99.2385 261.0132 15.24561263 39622
Epoch: 2024-11-20T19:25Z
Definitive object data (Epoch: 2024-11-20T19:25:09.397Z)
Latitude-0°
Longitude97.12024°
Altitude496.419 km
Speed7.616 km/s
True Right ascension05h 54m 50s
True Declination0° 00' 00"
Sunlit
Object was in full shadow at TLE epoch
Visualization TLE readout
Latitude38.13228°
Longitude-76.43585°
Altitude491.877 km
Speed7.626 km/s
Apparent Right ascension18h 01m 54s
Apparent Declination0° 50' 10"
Sunlit
Object is in daylight
Visualization observer readout
Local Sidereal Time05:41:14
Azimuth352.115° N
Elevation-48.975°
Doppler factor1
Orbital elements
Apogee altitude496.83 km
Perigee altitude481.303 km
Semi-major axis6,867.204 km
Eccentricity0.0011305
Inclination97.4924°
RAAN88.7093°
Arg. of periapsis99.2385°
True anomaly260.88527°
Mean anomaly261.0132°
Eccentric anomaly260.94923°
Mean motion3.81393 °/min
BSTAR0.00065921
Orbital period94.39 mins
Loading maneuver chart data...
Loading historical data...
Loading historical data...
Loading historical data...
Loading historical data...
Loading historical data...
Loading historical data...
Loading historical data...

JACKAL-01 Visibility forecast

Observer location: undefined°, undefined

Span
Click to sort rows by Start time (UTC) header in descending order
Start Az.
Max El. time (UTC)
Max El. Az.
Max El.
End time (UTC)
End Az.
6 mins2024-11-21 21:11:20.365Z16.915° NNE2024-11-21 21:14:20.365Z154.05° SSE42.761°2024-11-21 21:17:20.365Z187.775° SSW
4 mins2024-11-22 07:48:20.365Z112.827° SE2024-11-22 07:50:20.365Z61.539° ENE23.686°2024-11-22 07:52:20.365Z20.266° NNE
|